TimeEDT,TemperatureF,Dew PointF,Humidity,Sea Level PressureIn,VisibilityMPH,Wind Direction,Wind SpeedMPH,Gust SpeedMPH,PrecipitationIn,Events,Conditions,WindDirDegrees,DateUTC
12:53 AM,64.0,57.9,80,30.14,10.0,NNE,8.1,-,N/A,,Overcast,30,2013-10-15 04:53:00
1:12 AM,64.4,57.2,77,30.14,10.0,NNE,8.1,-,N/A,,Overcast,30,2013-10-15 05:12:00
1:41 AM,62.6,57.2,82,30.15,10.0,NNE,9.2,-,N/A,,Scattered Clouds,30,2013-10-15 05:41:00
1:53 AM,63.0,57.9,84,30.14,10.0,NNE,8.1,-,N/A,,Partly Cloudy,30,2013-10-15 05:53:00
2:53 AM,61.0,57.0,87,30.13,10.0,North,6.9,-,N/A,,Scattered Clouds,10,2013-10-15 06:53:00
3:53 AM,59.0,57.0,93,30.12,10.0,North,8.1,-,N/A,,Clear,360,2013-10-15 07:53:00
4:23 AM,60.8,57.2,88,30.13,10.0,North,6.9,-,N/A,,Mostly Cloudy,350,2013-10-15 08:23:00
4:53 AM,59.0,55.9,90,30.13,10.0,North,6.9,-,N/A,,Mostly Cloudy,10,2013-10-15 08:53:00
5:33 AM,57.2,55.4,94,30.13,10.0,North,8.1,-,N/A,,Scattered Clouds,360,2013-10-15 09:33:00
5:53 AM,57.9,55.9,93,30.13,10.0,North,8.1,-,N/A,,Partly Cloudy,10,2013-10-15 09:53:00
6:53 AM,57.0,55.0,93,30.12,9.0,North,9.2,-,N/A,,Scattered Clouds,10,2013-10-15 10:53:00
7:12 AM,57.2,55.4,94,30.14,9.0,NNE,9.2,-,N/A,,Mostly Cloudy,20,2013-10-15 11:12:00
7:32 AM,57.2,55.4,94,30.14,8.0,North,9.2,-,N/A,,Scattered Clouds,10,2013-10-15 11:32:00
7:53 AM,57.0,55.0,93,30.14,8.0,NNE,8.1,-,N/A,,Clear,20,2013-10-15 11:53:00
8:49 AM,60.8,55.4,82,30.14,10.0,NNE,10.4,-,N/A,,Scattered Clouds,20,2013-10-15 12:49:00
8:53 AM,60.1,55.9,86,30.14,10.0,NNE,9.2,-,N/A,,Scattered Clouds,20,2013-10-15 12:53:00
9:53 AM,63.0,55.0,75,30.15,10.0,NNE,10.4,-,N/A,,Scattered Clouds,30,2013-10-15 13:53:00
10:53 AM,68.0,55.9,65,30.13,10.0,NE,10.4,-,N/A,,Clear,40,2013-10-15 14:53:00
11:30 AM,69.8,57.2,64,30.12,10.0,NE,12.7,-,N/A,,Mostly Cloudy,50,2013-10-15 15:30:00
11:53 AM,72.0,57.0,59,30.11,10.0,ENE,12.7,18.4,N/A,,Mostly Cloudy,70,2013-10-15 15:53:00
12:46 PM,71.6,57.2,60,30.10,10.0,NE,13.8,-,N/A,,Scattered Clouds,40,2013-10-15 16:46:00
12:53 PM,72.0,57.0,59,30.09,10.0,ENE,11.5,-,N/A,,Partly Cloudy,60,2013-10-15 16:53:00
1:53 PM,73.9,57.0,55,30.06,10.0,NE,5.8,-,N/A,,Clear,40,2013-10-15 17:53:00
2:53 PM,75.9,59.0,56,30.04,10.0,NE,5.8,-,N/A,,Partly Cloudy,50,2013-10-15 18:53:00
3:53 PM,77.0,57.9,52,30.03,10.0,North,10.4,-,N/A,,Clear,10,2013-10-15 19:53:00
4:53 PM,75.9,57.0,52,30.02,10.0,ENE,9.2,-,N/A,,Clear,60,2013-10-15 20:53:00
5:53 PM,73.9,57.9,57,30.03,10.0,NNE,5.8,-,N/A,,Clear,30,2013-10-15 21:53:00
6:53 PM,70.0,59.0,68,30.04,10.0,NE,4.6,-,N/A,,Partly Cloudy,40,2013-10-15 22:53:00
7:53 PM,66.9,60.1,79,30.05,10.0,NE,6.9,-,N/A,,Clear,40,2013-10-15 23:53:00
8:53 PM,66.0,60.1,81,30.04,10.0,NE,6.9,-,N/A,,Scattered Clouds,50,2013-10-16 00:53:00
9:53 PM,68.0,60.1,76,30.05,10.0,NE,4.6,-,N/A,,Overcast,40,2013-10-16 01:53:00
10:53 PM,68.0,60.1,76,30.05,10.0,NE,4.6,-,N/A,,Overcast,40,2013-10-16 02:53:00
11:53 PM,68.0,60.1,76,30.04,10.0,NNE,5.8,-,N/A,,Overcast,30,2013-10-16 03:53:00